Regional Weather Roundup
Issued by NWS Jackson, KY

Home | Current Version | Previous Version | Graphics & Text | Print | Product List | Glossary On
Versions: 1 2 3 4 5 6 7 8 9 10 11 12 13 14 15 16 17 18 19 20 21 22 23 24 25 26 27 28 29 30 31 32 33 34 35 36 37 38 39 40 41 42 43 44 45 46 47 48 49 50
000
ASUS43 KJKL 232310
RWRJKL

EAST KENTUCKY HOURLY WEATHER ROUNDUP
NATIONAL WEATHER SERVICE JACKSON KY
700 PM EDT SAT MAY 23 2015

NOTE: "FAIR" INDICATES FEW OR NO CLOUDS BELOW 12,000 FEET WITH
NO SIGNIFICANT WEATHER AND/OR OBSTRUCTIONS TO VISIBILITY.

* THESE REPORTS ARE NOT UNDER NWS QUALITY CONTROL AND MAY NOT
  REPORT WEATHER SUCH AS PRECIPITATION AND FOG.

KYZ079-080-083-085-087-088-110-112-115-119-120-240000
...EASTERN KENTUCKY...

CITY           SKY/WX    TMP DP  RH WIND       PRES   REMARKS
JACKSON        MOSUNNY   75  43  31 CALM      30.31F
LONDON         MOSUNNY   77  45  32 SE5       30.30F
SOMERSET*      MOSUNNY   77  48  36 SE6       30.29F
MONTICELLO*    SUNNY     76  55  47 SE9       30.31F
MIDDLESBORO*   MOSUNNY   77  50  39 CALM      30.31F
HARLAN APT*    MOCLDY    77  43  29 CALM      30.32F
HAZARD APT*    CLEAR     79  43  27 CALM      30.31F
BLACK MTN*       N/A     64  45  48 W1          N/A
PIKEVILLE APT* SUNNY     72  50  46 NE5       30.33F
BIG SANDY*     CLEAR     74  53  47 CALM      30.33S
MOREHEAD APT*  CLEAR     75  46  35 CALM      30.33F
$$

KYZ035-036-041-042-044-050-067-078-099-240000
...CENTRAL KENTUCKY...

CITY           SKY/WX    TMP DP  RH WIND       PRES   REMARKS
MT STERLING*   MOSUNNY   77  46  33 E5        30.32F
FLEMING/MASON* SUNNY     75  46  35 S6        30.32F
DANVILLE*      SUNNY     77  50  38 S5        30.30F
RICHMOND*      PTSUNNY   77  43  29 SE6       30.29F
LEXINGTON      MOSUNNY   77  45  32 SE8       30.29F
FRANKFORT      SUNNY     78  45  30 E8        30.27F
$$

KYZ091>093-OHZ055-061-077-WVZ005-015-034-035-042-240000
...SOUTHERN OHIO/WEST VIRGINIA...

CITY           SKY/WX    TMP DP  RH WIND       PRES   REMARKS
COVINGTON      PTSUNNY   77  46  33 SE8       30.28F
COLUMBUS       MOSUNNY   75  41  29 S6        30.30F
DAYTON         MOSUNNY   77  44  30 S8        30.30F
WILMINGTON     SUNNY     76  38  25 S6        30.30F
HUNTINGTON     SUNNY     75  42  30 SE3       30.32S
CHARLESTON     MOSUNNY   77  42  28 N5        30.32F
PINEVILLE*     MOSUNNY   72  53  51 MISG      30.39F
BECKLEY        MOSUNNY   71  42  35 N7        30.37F
BLUEFIELD      PTSUNNY   73  41  31 W3        30.39F
$$

VAZ002-007-008-TNZ017-027-036-066-071-240000
...SOUTHWEST VIRGINIA/EAST TENNESSEE...

CITY           SKY/WX    TMP DP  RH WIND       PRES   REMARKS
WISE*          PTSUNNY   72  37  28 CALM      30.38F
JONESVILLE*    MOCLDY    77  46  33 CALM      30.34F
ABINGDON*      MOSUNNY   75  39  27 N3        30.35F
BRISTOL        MOSUNNY   80  45  28 N3        30.32F
KNOXVILLE      PTSUNNY   79  52  38 N6        30.28F
OAK RIDGE      PTSUNNY   80  51  36 CALM      30.30F
CROSSVILLE     CLOUDY    74  51  44 CALM      30.32F
NASHVILLE      MOSUNNY   82  54  37 S5        30.24F
$$

...KEY TO REMARKS...
VSB - VISIBILITY IN MILES
WCI - WIND CHILL INDEX
HX  - HEAT INDEX

$$


USA.gov is the U.S. government's official web portal to all federal, state and local government web resources and services.